Weather History for VIDP - May, 2014

Change the Weather History Date:

Friday, May 16, 2014

  Actual Average Record
Temperature  
Mean Temperature 86 °F -  
Max Temperature 96 °F 100 °F 113 °F (2007)
Min Temperature 77 °F 80 °F 73 °F (1997)
Cooling Degree Days 22    
Growing Degree Days 36 (Base 50)    
Moisture  
Dew Point 61 °F    
Average Humidity 45    
Maximum Humidity 74    
Minimum Humidity 25    
Precipitation  
Precipitation 0.00 in - - ()
Sea Level Pressure  
Sea Level Pressure 29.68 in    
Wind  
Wind Speed 7 mph ()    
Max Wind Speed 13 mph    
Max Gust Speed -    
Visibility 2.1 miles    
Events      
Averages and records for this station are not official NWS values.
T = Trace of Precipitation, MM = Missing Value Source: Averaged Metar Reports

Daily Weather History Graph

Daily Weather History Graph

Search for Another Location

Airport or City:

Trip Planner

Search our weather history database for the weather conditions in past years. The results will help you decide how hot, cold, wet, or windy it might be!

Date:

Astronomy

May. 16, 2014 Rise Set
Actual Time 5:30 AM IST 7:05 PM IST
Civil Twilight 5:04 AM IST 7:31 PM IST
Nautical Twilight 4:33 AM IST 8:02 PM IST
Astronomical Twilight 4:01 AM IST 8:34 PM IST
Moon 8:45 PM IST (5/16) 6:45 AM IST (5/16)
Length of Visible Light 14h 26m
Length of Day
13h 35m
Full, 97% of the Moon is Illuminated
May 16
Full
May 21
Last Quarter
May 29
New
Jun 6
First Quarter
Jun 13
Full

Hourly Weather History & Observations

Time (IST) Temp. Heat Index Dew Point Humidity Pressure Visibility Wind Dir Wind Speed Gust Speed Precip Events Conditions
12:30 AM 78.8 °F - 64.4 °F 61% 29.68 in 2.2 mi West 5.8 mph - N/A   Haze
1:00 AM 78.8 °F - 64.4 °F 61% 29.68 in 2.2 mi West 8.1 mph - N/A   Haze
1:30 AM 77.0 °F - 66.2 °F 69% 29.65 in 2.2 mi West 8.1 mph - N/A   Haze
2:00 AM 77.0 °F - 66.2 °F 69% 29.65 in 2.2 mi West 6.9 mph - N/A   Haze
2:30 AM 77.0 °F - 66.2 °F 69% 29.65 in - WSW 5.8 mph - N/A   Haze
3:30 AM 77.0 °F - 66.2 °F 69% 29.65 in 1.4 mi West 6.9 mph - N/A   Haze
4:00 AM 77.0 °F - 68.0 °F 74% 29.65 in 1.3 mi West 6.9 mph - N/A   Haze
4:30 AM 77.0 °F - 68.0 °F 74% 29.65 in 1.3 mi West 4.6 mph - N/A   Haze
5:00 AM 77.0 °F - 68.0 °F 74% 29.65 in 1.2 mi West 9.2 mph - N/A   Haze
5:30 AM 77.0 °F - 68.0 °F 74% 29.65 in 1.2 mi West 5.8 mph - N/A   Haze
6:00 AM 77.0 °F - 68.0 °F 74% 29.65 in 1.2 mi WNW 6.9 mph - N/A   Haze
6:30 AM 78.8 °F - 64.4 °F 61% 29.68 in 1.1 mi WNW 12.7 mph - N/A   Haze
7:00 AM 80.6 °F 82.3 °F 64.4 °F 58% 29.68 in 1.1 mi NW 11.5 mph - N/A   Haze
7:30 AM 80.6 °F 82.3 °F 64.4 °F 58% 29.68 in 1.3 mi WNW 10.4 mph - N/A   Haze
8:00 AM 82.4 °F 83.9 °F 64.4 °F 54% 29.68 in 1.6 mi NNW 10.4 mph - N/A   Haze
8:30 AM 84.2 °F 85.6 °F 64.4 °F 51% 29.71 in 1.6 mi WNW 8.1 mph - N/A   Haze
9:00 AM 84.2 °F 85.6 °F 64.4 °F 51% 29.71 in 1.6 mi NW 5.8 mph - N/A   Haze
9:30 AM 86.0 °F 87.3 °F 64.4 °F 48% 29.71 in 1.6 mi NW 6.9 mph - N/A   Haze
10:00 AM 87.8 °F 87.6 °F 60.8 °F 40% 29.71 in 1.6 mi NW 5.8 mph - N/A   Haze
11:00 AM 91.4 °F 91.4 °F 60.8 °F 36% 29.71 in - WNW 9.2 mph - N/A   Haze
11:30 AM 93.2 °F 92.6 °F 59.0 °F 32% 29.71 in 2.5 mi NW 11.5 mph - N/A   Haze
12:00 PM 95.0 °F 93.7 °F 57.2 °F 28% 29.71 in 2.5 mi NW 11.5 mph - N/A   Haze
12:30 PM 95.0 °F 93.7 °F 57.2 °F 28% 29.71 in 2.5 mi NW 9.2 mph - N/A   Haze
1:00 PM 95.0 °F 93.7 °F 57.2 °F 28% 29.71 in 2.5 mi NW 9.2 mph - N/A   Haze
1:30 PM 95.0 °F 93.7 °F 57.2 °F 28% 29.71 in 2.5 mi WNW 6.9 mph - N/A   Haze
2:00 PM 96.8 °F 95.8 °F 57.2 °F 27% 29.68 in 2.5 mi NW 5.8 mph - N/A   Haze
2:30 PM 96.8 °F 95.1 °F 55.4 °F 25% 29.68 in 2.5 mi NW 9.2 mph - N/A   Haze
3:00 PM 96.8 °F 95.1 °F 55.4 °F 25% 29.68 in 2.5 mi WNW 12.7 mph - N/A   Haze
3:30 PM 96.8 °F 95.1 °F 55.4 °F 25% 29.68 in 2.8 mi WNW 11.5 mph - N/A   Haze
4:30 PM 96.8 °F 95.1 °F 55.4 °F 25% 29.65 in 3.1 mi WNW 9.2 mph - N/A   Haze
5:00 PM 96.8 °F 95.1 °F 55.4 °F 25% 29.65 in 3.1 mi WNW 11.5 mph - N/A   Haze
5:30 PM 96.8 °F 95.1 °F 55.4 °F 25% 29.65 in 2.8 mi West 10.4 mph - N/A   Haze
6:00 PM 95.0 °F 93.7 °F 57.2 °F 28% 29.65 in 2.8 mi WNW 11.5 mph - N/A   Haze
6:30 PM 93.2 °F 91.3 °F 55.4 °F 28% 29.65 in 2.5 mi WNW 9.2 mph - N/A   Haze
7:00 PM 93.2 °F 91.3 °F 55.4 °F 28% 29.68 in 2.5 mi WNW 9.2 mph - N/A   Haze
7:30 PM 91.4 °F 89.9 °F 57.2 °F 31% 29.68 in 2.5 mi WNW 8.1 mph - N/A   Haze
8:00 PM 89.6 °F 88.1 °F 57.2 °F 33% 29.68 in 2.5 mi West 6.9 mph - N/A   Haze
8:30 PM 89.6 °F 88.9 °F 59.0 °F 36% 29.68 in 2.2 mi West 3.5 mph - N/A   Haze
9:00 PM 89.6 °F 88.9 °F 59.0 °F 36% 29.68 in - WSW 3.5 mph - N/A   Haze
9:30 PM 89.6 °F 88.9 °F 59.0 °F 36% 29.68 in - WSW 3.5 mph - N/A   Haze
10:00 PM 89.6 °F 88.9 °F 59.0 °F 36% 29.68 in - West 3.5 mph - N/A   Haze
10:30 PM 87.8 °F 87.1 °F 59.0 °F 38% 29.71 in - West 3.5 mph - N/A   Haze
11:00 PM 86.0 °F 85.4 °F 59.0 °F 40% 29.71 in - Calm Calm - N/A   Haze
11:30 PM 86.0 °F 86.1 °F 60.8 °F 43% 29.71 in - Calm Calm - N/A   Haze